Location: Izdebno
(52.6670°N, 16.2170°E)
Time: 12:30:44
(UTC+02:00)

Vanguard 2 - Visible Passes

Search period start: 24 September 2023 00:00
Search period end: 04 October 2023 00:00
Orbit: 552 x 2924 km, 32.9° (Epoch: 23 September)

Date Brightness Start Highest point End Pass type
(mag) Time Alt. Az. Time Alt. Az. Time Alt. Az.
24 Sep 10.4 20:03:23 10° SSW 20:09:27 15° SSE 20:13:55 11° SE visible
24 Sep 10.4 22:11:01 10° SW 22:15:10 17° SSW 22:15:10 17° SSW visible
25 Sep 10.3 20:17:14 10° SSW 20:24:51 18° SSE 20:28:54 14° SE visible
25 Sep 10.5 22:26:04 10° SW 22:30:10 17° SSW 22:30:10 17° SSW visible
26 Sep 10.2 20:31:34 10° SW 20:40:15 21° S 20:43:51 17° SSE visible
26 Sep 10.5 22:41:20 10° SW 22:45:06 17° SW 22:45:06 17° SW visible
27 Sep 10.2 20:46:15 10° SW 20:55:37 23° S 20:58:45 20° SSE visible
27 Sep 10.6 22:56:46 10° WSW 23:00:00 16° SW 23:00:00 16° SW visible
28 Sep 10.1 21:01:10 10° SW 21:11:00 25° S 21:13:37 22° SSE visible
28 Sep 10.8 23:12:24 10° WSW 23:14:51 14° SW 23:14:51 14° SW visible
29 Sep 10.6 19:06:50 10° SSW 19:17:47 24° SSE 19:26:08 10° ESE visible
29 Sep 10.1 21:16:18 10° SW 21:26:19 26° S 21:28:26 24° S visible
29 Sep 10.9 23:28:19 10° WSW 23:29:40 12° SW 23:29:40 12° SW visible
30 Sep 10.6 19:21:22 10° SW 19:33:08 27° S 19:41:55 10° ESE visible
30 Sep 10.2 21:31:35 10° WSW 21:41:36 25° SSW 21:43:13 25° S visible
01 Oct 10.5 19:36:09 10° SW 19:48:28 29° S 19:56:46 12° SE visible
01 Oct 10.3 21:47:01 10° WSW 21:56:49 25° SSW 21:57:59 24° S visible
02 Oct 10.5 19:51:09 10° SW 20:03:47 30° S 20:11:30 15° SE visible
02 Oct 10.4 22:02:36 10° WSW 22:11:59 23° SSW 22:12:44 23° SSW visible
03 Oct 10.5 20:06:18 10° WSW 20:19:05 31° S 20:26:15 17° SE visible
03 Oct 10.6 22:18:22 10° WSW 22:27:04 21° SSW 22:27:28 21° SSW visible
